TimePDT,TemperatureF,Dew PointF,Humidity,Sea Level PressureIn,VisibilityMPH,Wind Direction,Wind SpeedMPH,Gust SpeedMPH,PrecipitationIn,Events,Conditions,WindDirDegrees,DateUTC
12:10 AM,60.8,41.0,48,29.95,10.0,Calm,Calm,-,N/A,,Clear,0,2013-09-02 07:10:00
12:30 AM,59.0,41.0,51,29.96,10.0,Calm,Calm,-,N/A,,Clear,0,2013-09-02 07:30:00
12:50 AM,57.2,41.0,55,29.96,10.0,Calm,Calm,-,N/A,,Clear,0,2013-09-02 07:50:00
1:10 AM,57.2,41.0,55,29.96,10.0,West,3.5,-,N/A,,Clear,270,2013-09-02 08:10:00
1:30 AM,57.2,41.0,55,29.97,10.0,Calm,Calm,-,N/A,,Clear,0,2013-09-02 08:30:00
1:50 AM,55.4,42.8,63,29.96,10.0,Calm,Calm,-,N/A,,Clear,0,2013-09-02 08:50:00
2:10 AM,57.2,42.8,59,29.96,10.0,Calm,Calm,-,N/A,,Clear,0,2013-09-02 09:10:00
2:30 AM,55.4,42.8,63,29.96,10.0,WNW,3.5,-,N/A,,Clear,300,2013-09-02 09:30:00
2:50 AM,55.4,42.8,63,29.96,10.0,Calm,Calm,-,N/A,,Clear,0,2013-09-02 09:50:00
3:10 AM,55.4,44.6,67,29.96,10.0,Calm,Calm,-,N/A,,Clear,0,2013-09-02 10:10:00
3:30 AM,55.4,44.6,67,29.96,10.0,Calm,Calm,-,N/A,,Clear,0,2013-09-02 10:30:00
3:50 AM,53.6,44.6,72,29.96,10.0,Calm,Calm,-,N/A,,Clear,0,2013-09-02 10:50:00
4:10 AM,53.6,44.6,72,29.96,10.0,Calm,Calm,-,N/A,,Clear,0,2013-09-02 11:10:00
4:30 AM,53.6,44.6,72,29.96,10.0,Calm,Calm,-,N/A,,Clear,0,2013-09-02 11:30:00
4:50 AM,53.6,44.6,72,29.97,10.0,Calm,Calm,-,N/A,,Clear,0,2013-09-02 11:50:00
5:10 AM,51.8,44.6,76,29.97,10.0,West,3.5,-,N/A,,Clear,280,2013-09-02 12:10:00
5:30 AM,50.0,44.6,82,29.97,10.0,Calm,Calm,-,N/A,,Clear,0,2013-09-02 12:30:00
5:50 AM,51.8,44.6,76,29.97,10.0,WNW,3.5,-,N/A,,Clear,300,2013-09-02 12:50:00
6:10 AM,50.0,44.6,82,29.97,10.0,Calm,Calm,-,N/A,,Clear,0,2013-09-02 13:10:00
6:30 AM,50.0,44.6,82,29.98,10.0,West,3.5,-,N/A,,Clear,280,2013-09-02 13:30:00
6:50 AM,50.0,44.6,82,29.99,10.0,Calm,Calm,-,N/A,,Clear,0,2013-09-02 13:50:00
7:10 AM,50.0,44.6,82,29.99,10.0,Calm,Calm,-,N/A,,Clear,0,2013-09-02 14:10:00
7:30 AM,53.6,46.4,77,29.99,10.0,Calm,Calm,-,N/A,,Clear,0,2013-09-02 14:30:00
7:50 AM,57.2,46.4,67,30.00,10.0,Calm,Calm,-,N/A,,Clear,0,2013-09-02 14:50:00
8:10 AM,57.2,46.4,67,30.01,10.0,Calm,Calm,-,N/A,,Clear,0,2013-09-02 15:10:00
8:30 AM,59.0,46.4,63,30.00,10.0,NE,3.5,-,N/A,,Clear,50,2013-09-02 15:30:00
8:50 AM,60.8,46.4,59,30.00,10.0,Calm,Calm,-,N/A,,Clear,0,2013-09-02 15:50:00
9:10 AM,62.6,46.4,55,30.00,10.0,ENE,4.6,-,N/A,,Scattered Clouds,60,2013-09-02 16:10:00
9:30 AM,64.4,46.4,52,30.00,10.0,ENE,3.5,-,N/A,,Partly Cloudy,60,2013-09-02 16:30:00
9:50 AM,66.2,48.2,52,30.00,10.0,ENE,3.5,-,N/A,,Clear,70,2013-09-02 16:50:00
10:10 AM,68.0,50.0,52,29.99,10.0,NNE,3.5,-,N/A,,Clear,30,2013-09-02 17:10:00
10:30 AM,68.0,50.0,52,29.98,10.0,East,3.5,-,N/A,,Clear,80,2013-09-02 17:30:00
10:50 AM,69.8,50.0,49,29.98,10.0,SSE,3.5,-,N/A,,Clear,150,2013-09-02 17:50:00
11:10 AM,71.6,50.0,46,29.97,10.0,ENE,5.8,-,N/A,,Clear,60,2013-09-02 18:10:00
11:30 AM,73.4,50.0,44,29.97,10.0,ESE,5.8,-,N/A,,Clear,120,2013-09-02 18:30:00
11:50 AM,73.4,48.2,41,29.97,10.0,Calm,Calm,-,N/A,,Clear,0,2013-09-02 18:50:00
12:10 PM,75.2,46.4,36,29.96,10.0,SW,6.9,-,N/A,,Clear,220,2013-09-02 19:10:00
12:30 PM,77.0,48.2,36,29.96,10.0,SSE,5.8,-,N/A,,Clear,150,2013-09-02 19:30:00
12:50 PM,77.0,46.4,34,29.95,10.0,South,3.5,-,N/A,,Clear,180,2013-09-02 19:50:00
1:10 PM,77.0,46.4,34,29.94,10.0,SSE,6.9,-,N/A,,Clear,160,2013-09-02 20:10:00
1:30 PM,80.6,46.4,30,29.94,10.0,South,11.5,-,N/A,,Partly Cloudy,170,2013-09-02 20:30:00
1:50 PM,80.6,46.4,30,29.93,10.0,SSE,11.5,-,N/A,,Partly Cloudy,160,2013-09-02 20:50:00
2:10 PM,78.8,46.4,32,29.93,10.0,SSE,5.8,-,N/A,,Partly Cloudy,150,2013-09-02 21:10:00
2:30 PM,80.6,48.2,32,29.92,10.0,SSE,11.5,-,N/A,,Scattered Clouds,160,2013-09-02 21:30:00
2:50 PM,80.6,46.4,30,29.92,10.0,South,9.2,-,N/A,,Scattered Clouds,190,2013-09-02 21:50:00
3:10 PM,78.8,46.4,32,29.92,10.0,SE,5.8,-,N/A,,Mostly Cloudy,140,2013-09-02 22:10:00
3:30 PM,80.6,48.2,32,29.91,10.0,SE,9.2,-,N/A,,Mostly Cloudy,140,2013-09-02 22:30:00
3:50 PM,80.6,48.2,32,29.91,10.0,SE,6.9,-,N/A,,Partly Cloudy,130,2013-09-02 22:50:00
4:10 PM,77.0,48.2,36,29.91,10.0,SE,4.6,-,N/A,,Clear,130,2013-09-02 23:10:00
4:30 PM,77.0,46.4,34,29.90,10.0,SE,8.1,-,N/A,,Scattered Clouds,140,2013-09-02 23:30:00
4:50 PM,77.0,48.2,36,29.89,10.0,ESE,4.6,-,N/A,,Mostly Cloudy,120,2013-09-02 23:50:00
5:10 PM,78.8,48.2,34,29.89,10.0,South,10.4,-,N/A,,Mostly Cloudy,170,2013-09-03 00:10:00
5:30 PM,80.6,48.2,32,29.88,10.0,SE,5.8,-,N/A,,Mostly Cloudy,140,2013-09-03 00:30:00
5:50 PM,78.8,48.2,34,29.89,10.0,SE,6.9,-,N/A,,Mostly Cloudy,140,2013-09-03 00:50:00
6:10 PM,77.0,50.0,39,29.89,10.0,SSE,9.2,-,N/A,,Overcast,150,2013-09-03 01:10:00
6:30 PM,77.0,50.0,39,29.89,10.0,SE,6.9,-,N/A,,Mostly Cloudy,130,2013-09-03 01:30:00
6:50 PM,75.2,50.0,41,29.89,10.0,SE,9.2,-,N/A,,Scattered Clouds,140,2013-09-03 01:50:00
7:10 PM,75.2,50.0,41,29.89,10.0,SE,8.1,-,N/A,,Scattered Clouds,140,2013-09-03 02:10:00
7:30 PM,73.4,51.8,47,29.90,10.0,SE,4.6,-,N/A,,Clear,140,2013-09-03 02:30:00
7:50 PM,73.4,51.8,47,29.90,10.0,SSE,8.1,-,N/A,,Clear,160,2013-09-03 02:50:00
8:10 PM,73.4,51.8,47,29.91,10.0,SE,6.9,-,N/A,,Clear,140,2013-09-03 03:10:00
8:30 PM,71.6,51.8,50,29.91,10.0,SE,4.6,-,N/A,,Partly Cloudy,140,2013-09-03 03:30:00
8:50 PM,71.6,51.8,50,29.92,10.0,SE,4.6,-,N/A,,Mostly Cloudy,140,2013-09-03 03:50:00
9:10 PM,71.6,53.6,53,29.93,10.0,SSE,4.6,-,N/A,,Mostly Cloudy,150,2013-09-03 04:10:00
9:30 PM,71.6,53.6,53,29.94,10.0,SSE,5.8,-,N/A,,Mostly Cloudy,150,2013-09-03 04:30:00
9:50 PM,71.6,53.6,53,29.94,10.0,SE,3.5,-,N/A,,Scattered Clouds,140,2013-09-03 04:50:00
10:10 PM,69.8,53.6,56,29.94,10.0,Calm,Calm,-,N/A,,Mostly Cloudy,0,2013-09-03 05:10:00
10:30 PM,69.8,53.6,56,29.95,10.0,SSE,5.8,-,N/A,,Overcast,160,2013-09-03 05:30:00
10:50 PM,69.8,53.6,56,29.96,10.0,South,8.1,-,N/A,,Overcast,170,2013-09-03 05:50:00
11:10 PM,69.8,53.6,56,29.95,10.0,SSE,9.2,-,N/A,,Overcast,160,2013-09-03 06:10:00
11:30 PM,71.6,50.0,46,29.96,10.0,SSE,5.8,-,N/A,,Overcast,160,2013-09-03 06:30:00
11:50 PM,69.8,53.6,56,29.96,10.0,SE,3.5,-,N/A,,Overcast,130,2013-09-03 06:50:00